Tracking 29892 objects as of 21-Nov-2024
HD Live streaming from Space Station
objects crossing your sky now

SL-8 DEB

Track SL-8 DEB now!
10-day predictions


NORAD ID: 38666
Int'l Code: 1971-035F
Perigee: 754.0 km
Apogee: 794.3 km
Inclination: 74.0 °
Period: 100.2 minutes
Semi major axis: 7145 km
RCS: 0.0026 m2 (small)
Launch date: April 23, 1971
Source: Commonwealth of Independent States (former USSR) (CIS)
Launch site: PLESETSK MISSILE AND SPACE COMPLEX (PKMTR)

Note: This is SATELLITE DEBRIS
Your satellite tracking list
Your tracking list is empty




NASA's NSSDC Master Catalog

Two Line Element Set (TLE):
1 38666U 71035F   24324.21075794  .00000449  00000-0  15844-3 0  9997
2 38666  74.0463 303.6420 0028174 219.3540 140.5567 14.37419630530755
Source of the keplerian elements: AFSPC